Observer details:
033 Karl Schwarzschild Observatory, Tautenburg.  Observers C. Hoegner,
    B. Stecklum.  Measurer B. Stecklum.  1.34-m f/3 Schmidt + CCD.
104 San Marcello Pistoiese.  Observers P. Bacci, M. Maestripieri.  Measurers
    P. Bacci, L. Tesi, G. Fagioli.  0.60-m reflector + CCD.
160 Castelmartini.  Observers M. Jaeger, E. Prosperi, S. Prosperi,
    W. Vollmann.  Measurer E. Prosperi.  0.35-m f/10 Schmidt-Cassegrain + CCD.
204 Schiaparelli Observatory.  Observer L. Buzzi.  0.60-m f/4.64 reflector +
    CCD.
587 Sormano.  Observers A. Fumagalli, P. Sicoli, A. Testa.  Measurer
    P. Sicoli.  0.5-m f/6.8 reflector + CCD.
595 Farra dIsonzo.  Observers E. Pettarin, F. Piani.  Measurer
    E. Pettarin.  0.61-m f/4.5 reflector + CCD.
C77 Bernezzo Observatory.  Observer A. Mantero.  0.25-m f/1000.0 reflector +
    CCD.
C95 SATINO Remote Observatory, Haute Provence.  Observer J. Jahn.  0.60-m
    f/3.2 Newtonian reflector + CCD.
H21 Astronomical Research Observatory, Westfield.  Observer R. Holmes.
    Measurers S. Foglia, L. Buzzi, T. Linder, R. Holmes.  0.61-m f/4.5
    astrograph + CCD.
H36 Sandlot Observatory, Scranton.  Observer G. Hug.  0.56-m reflector + CCD.
I52 Steward Observatory, Mt. Lemmon Station.  Observer G. J. Leonard.
    Measurers B. M. Africano, E. J. Christensen, G. A. Farneth, D. C. Fuls,
    A. R. Gibbs, A. D. Grauer, H. Groeller, R. A. Kowalski, S. M. Larson,
    G. J. Leonard, R. L. Seaman, F. C. Shelly.  1.0-m reflector + CCD.
J69 North Observatory, Clanfield.  Observer D. Briggs.  0.41-m f/4.5
    Newtonian reflector + CCD.
J95 Great Shefford.  Observer P. Birtwhistle.  0.41-m f/6.3
    Schmidt-Cassegrain + CCD.
K38 M57 Observatory, Saltrio.  Observer G. Baj.  0.3-m f/5.5 Ritchey-Chretien
    + CCD.
K51 Osservatorio del Celado, Castello Tesino.  Observers M. Campestrin,
    G. Favero, R. Furgoni.  Measurers M. Campestrin, R. Furgoni.  0.80-m f/4
    reflector + CCD.
K63 G. Pascoli Observatory, Castelvecchio Pascoli.  Observer R. Bacci.
    0.41-m f/3.2 Newtonian reflector + CCD.
K88 GINOP-KHK, Piszkesteto.  Observer K. Sarneczky.  0.60-m Schmidt + CCD.
L01 Visnjan Observatory, Tican.  Observer K. Korlevic.  1.0-m f/2.9 reflector
    + CCD.
T05 ATLAS-HKO, Haleakala.  Observers L. Denneau, H. Flewelling, A. Heinze,
    H. Weiland, J. Tonry.  Measurers L. Denneau, H. Flewelling, A. Heinze,
    J. Tonry, A. Fitzsimmons, D. Young, N. Erasmus.  0.5-m f/2.0 Schmidt +
    CCD.
V01 <no name>.  Observer B. Sheets.  0.35-m Schmidt-Cassegrain + CCD.
V03 Big Water.  Observer D. Rankin.  0.30-m reflector + CCD.
Z80 Northolt Branch Observatory.  Observer G. Wells.  Measurer D. Bamberger.
    0.25-m f/8.0 Ritchey-Chretien + CCD.
Z99 Clixby Observatory, Cleethorpes.  Observer A. Mickleburgh.  0.36-m f/8
    Schmidt-Cassegrain + CCD.
 
Orbital elements:
2018 XG1                                                 Earth MOID = 0.0617 AU
Epoch 2019 Apr. 27.0 TT = JDT 2458600.5                 MPC
M  20.70455              (2000.0)            P               Q
n   0.24099842     Peri.  120.69087     -0.97271872     -0.20616772
a   2.5573682      Node    47.64114     +0.13077930     -0.86601352
e   0.7591851      Incl.    8.27594     +0.19161176     -0.45553863
P   4.09           H   21.6           G   0.15           U   6
Residuals in seconds of arc
181208 T05  0.4-  0.5-    181208 K63  0.0   0.3+    181209 Z80  0.5+  0.8-
181208 T05  0.1+  0.5+    181208 K63  0.1+  0.1-    181209 Z80  0.6-  0.8+
181208 T05  0.4+  0.3+    181208 K63  0.3+  0.2-    181209 Z80  0.5+  0.3-
181208 T05  0.5-  0.1+    181208 C77  0.4+  0.1+    181209 Z80  1.0+  0.1+
181208 K51  0.2+  0.2-    181208 C77  0.6-  0.5-    181209 Z80  0.2-  0.2-
181208 K51  0.1+  0.1-    181208 595  0.5+  0.4-    181209 C95  0.4-  0.0
181208 K51  0.0   0.0     181208 C77  1.7+  0.7+    181209 C95  0.5-  0.6-
181208 104  0.4+  0.1+    181208 595  0.5-  0.5+    181209 C95  0.4+  0.1-
181208 033  0.3+  0.2-    181208 204  0.2+  0.1-    181209 C95  0.3+  0.3+
181208 033  0.3+  0.1+    181209 204  0.1-  0.2-    181209 C95  0.1+  0.1-
181208 033  0.4+  0.0     181209 V03  0.1-  0.1-    181209 J69  0.1+  0.9+
181208 033  0.1+  0.0     181209 V03  0.3+  0.2-    181209 C95  0.2+  0.0
181208 033  0.3+  0.2-    181209 H36  0.3-  0.5+    181209 J69  1.5+  1.3+
181208 033  0.1+  0.1-    181209 V03  0.1-  0.0     181210 033  0.1+  0.1-
181208 K88  0.2-  0.0     181209 H36  0.1+  0.3+    181210 033  0.2+  0.1+
181208 104  0.2+  0.1+    181209 H36  0.0   0.5+    181210 J95  0.2-  0.0
181208 K88  0.6-  0.1+    181209 H36  0.1+  0.4-    181210 J95  0.1+  0.1-
181208 K88  0.0   0.1+    181209 V01  0.1+  0.7-    181210 J95  0.1+  0.3-
181208 K88  0.5-  0.3-    181209 V01  0.2+  0.2-    181210 I52  0.8+  0.0
181208 104  0.2+  1.0+    181209 V01  1.7-  1.1+    181210 I52  0.2+  0.1-
181208 L01  0.1+  0.4-    181209 Z99  0.5+  0.6+    181210 I52  0.5+  0.3+
181208 L01  0.1+  0.4-    181209 Z99  0.2+  0.5+    181210 H21  0.4+  0.2-
181208 L01  0.1+  0.7-    181209 Z99  0.3+  0.5+    181210 H21  0.2+  0.1-
181208 L01  0.1+  0.3-    181209 160  0.3+  0.0     181210 H21  0.5+  0.1-
181208 L01  0.1+  0.3-    181209 160  0.3+  0.1+    181210 587  0.1-  0.2+
181208 L01  0.1+  0.2-    181209 160  0.1-  0.1-    181210 587  0.3-  0.1-
181208 L01  0.3+  0.3-    181209 160  0.0   0.3+    181210 587  0.3-  0.1+
181208 K38  0.6+  1.0+    181209 160  0.2+  0.5+    181210 K51  0.0   0.1-
181208 K38  0.5+  0.1+    181209 160  0.2+  0.0     181210 K51  0.1+  0.1-
181208 K38  0.7+  0.2+    181209 160  0.5+  0.3+    181210 K51  0.2+  0.0

Ephemeris:
2018 XG1                 a,e,i = 2.56, 0.76, 8                   q = 0.6159
Date    TT    R. A. (2000) Decl.     Delta      r     Elong.  Phase     V
2018 11 11    05 10 58.4 +27 29 54   0.5112  1.4521   148.9    20.6    22.0
...
2018 11 26    05 06 45.3 +34 46 01   0.2970  1.2709   160.6    14.9    20.3
...
2018 12 04    04 52 17.2 +43 46 20   0.1979  1.1717   158.2    18.2    19.4
...
2018 12 10    04 14 10.4 +57 31 26   0.1345  1.0966   144.1    31.8    18.8
2018 12 11    03 59 35.7 +60 50 54   0.1255  1.0841   140.2    35.6    18.7
2018 12 12    03 38 48.9 +64 29 33   0.1172  1.0715   135.6    40.0    18.7
...
2018 12 18    20 22 13.0 +67 15 02   0.08947 0.9964    95.4    79.4    19.1
...
2018 12 26    18 14 53.7 +22 40 55   0.1302  0.8980    46.1   127.9    22.5
...
2019 01 10    17 51 23.0 -04 21 10   0.3030  0.7312    28.4   140.2    25.2

A. U. Tomatic                (C) Copyright 2018 MPC           M.P.E.C. 2018-X70



More information about the Iaude mailing list